Lid_Strength_Index
1 1 1 1 1 1 1 1 0 0 0 0 0 0 0 1 1 1 1 1 1 1
1 1 1 1 0 1 1 1 0 0 0 0 0 0 0 1 1 1 1 1 1 1
0 0 1 1 1 1 1 0 1 1 1 0 0 0 1 1 1 1 1 1 1 1
1 0 0 1 1 1 1 1 1 1 1 1 1 1 1 1 1 1 1 1 1 2
1 0 1 1 1 1 1 0 1 1 1 1 1 1 1 1 1 1 2 1 2 2
1 1 1 1 1 1 1 1 0 1 1 1 1 1 1 1 1 1 1 2 2 3
1 1 0 1 0 1 0 1 1 1 1 1 1 1 1 1 1 1 1 1 2 2
1 0 0 1 1 0 1 1 1 1 1 1 1 1 1 1 1 1 1 1 1 2
1 1 1 1 1 1 1 1 1 1 1 1 4 8 5 1 1 1 1 1 1 2
1 1 1 1 1 1 1 1 1 1 1 2 3 8 7 5 1 1 2 2 2 2
1 1 1 1 1 1 1 1 1 1 1 1 4 7 7 4 1 1 1 1 1 1
1 1 1 1 2 1 1 1 1 1 1 1 2 8 8 3 1 1 1 1 1 1
1 1 1 1 1 1 1 1 1 1 1 2 1 8 9 6 1 2 1 1 4 7
1 1 1 1 1 1 1 1 1 1 1 1 1 2 8 8 1 1 1 1 2 5